FW2178 Weather Reports


Display with metric or nautical units.
time (UTC)temp
F
wind
direction
speed
MPH
gust
MPH
rain 1hr
in
rain 24hr
in
rain mn
in
humidity
%
barometer
mb
20260509160430 56 108 0.0 0.0 0.00 0.00 0.00 82 1020.3
20260509155929 55 65 0.0 0.0 0.00 0.00 0.00 81 1020.2
20260509155429 55 87 0.0 0.0 0.00 0.00 0.00 82 1020.4
20260509154929 55 152 0.0 0.0 0.00 0.00 0.00 86 1020.3
20260509154726 54 129 0.0 0.0 0.00 0.00 0.00 87 1020.3
20260509153928 54 147 0.0 0.0 0.00 0.00 0.00 88 1020.2
20260509153430 54 156 0.0 0.0 0.00 0.00 0.00 89 1020.3
20260509152929 53 145 0.0 0.0 0.00 0.00 0.00 92 1020.2
20260509152723 52 160 0.0 0.0 0.00 0.00 0.00 94 1020.3
20260509151929 51 144 0.0 0.0 0.00 0.00 0.00 98 1020.2
20260509151429 50 112 0.0 0.0 0.00 0.00 0.00 99 1020.5
20260509150928 50 138 0.0 0.0 0.00 0.00 0.00 99 1020.4
20260509150430 49 138 0.0 0.0 0.00 0.00 0.00 99 1020.4
20260509145929 49 138 0.0 0.0 0.00 0.00 0.00 99 1020.6
20260509145429 48 138 0.0 0.0 0.00 0.00 0.00 99 1020.5
20260509144929 48 138 0.0 0.0 0.00 0.00 0.00 99 1020.8
20260509144718 48 138 0.0 0.0 0.00 0.00 0.00 99 1020.5
20260509144225 47 138 0.0 0.0 0.00 0.00 0.00 99 1020.4
20260509143429 47 137 0.0 0.0 0.00 0.00 0.00 99 1020.7
20260509142929 47 137 0.0 0.0 0.00 0.00 0.00 99 1020.9
20260509142429 47 137 0.0 0.0 0.00 0.00 0.00 99 1020.9
20260509141928 46 137 0.0 0.0 0.00 0.00 0.00 99 1020.9
20260509141434 46 137 0.0 0.0 0.00 0.00 0.00 99 1020.9
20260509140932 46 137 0.0 0.0 0.00 0.00 0.00 99 1020.9
20260509140431 46 137 0.0 0.0 0.00 0.00 0.00 99 1020.9
20260509140222 45 137 0.0 0.0 0.00 0.00 0.00 99 1021.0
20260509135719 45 137 0.0 0.0 0.00 0.00 0.00 99 1020.9
20260509134929 45 138 0.0 0.0 0.00 0.00 0.00 99 1020.8
20260509134429 45 138 0.0 0.0 0.00 0.00 0.00 99 1020.8
20260509133930 45 138 0.0 0.0 0.00 0.00 0.00 99 1021.1
20260509133429 45 138 0.0 0.0 0.00 0.00 0.00 99 1020.9
20260509132930 45 138 0.0 0.0 0.00 0.00 0.00 99 1021.0
20260509132429 45 138 0.0 0.0 0.00 0.00 0.00 99 1020.9
20260509131929 45 138 0.0 0.0 0.00 0.00 0.00 99 1020.8
20260509131429 44 138 0.0 0.0 0.00 0.00 0.00 99 1020.8
20260509130929 44 139 0.0 0.0 0.00 0.00 0.00 99 1020.9
20260509130429 44 139 0.0 0.0 0.00 0.00 0.00 99 1020.8
20260509125931 45 139 0.0 0.0 0.00 0.00 0.00 99 1020.7
20260509125719 45 138 0.0 0.0 0.00 0.00 0.00 99 1020.6
20260509125216 44 138 0.0 0.0 0.00 0.00 0.00 99 1020.7
20260509124430 45 138 0.0 0.0 0.00 0.00 0.00 99 1020.9
20260509124216 45 138 0.0 0.0 0.00 0.00 0.00 99 1020.8
20260509123429 45 140 0.0 0.0 0.00 0.00 0.00 99 1021.0
20260509122929 45 140 0.0 0.0 0.00 0.00 0.00 99 1020.7
20260509122718 45 140 0.0 0.0 0.00 0.00 0.00 99 1021.0
20260509121929 45 140 0.0 0.0 0.00 0.00 0.00 99 1021.0
20260509121726 45 140 0.0 0.0 0.00 0.00 0.00 99 1021.1
20260509120929 45 140 0.0 0.0 0.00 0.00 0.00 98 1020.8
20260509120717 45 140 0.0 0.0 0.00 0.00 0.00 98 1020.9
20260509120228 45 140 0.0 0.0 0.00 0.00 0.00 98 1020.8
20260509115430 45 140 0.0 0.0 0.00 0.00 0.00 98 1021.1
20260509114929 45 140 0.0 0.0 0.00 0.00 0.00 98 1021.0
20260509114430 45 140 0.0 0.0 0.00 0.00 0.00 98 1021.2
20260509114218 46 140 0.0 0.0 0.00 0.00 0.00 98 1020.9
20260509113429 46 140 0.0 0.0 0.00 0.00 0.00 98 1021.1
20260509113219 46 140 0.0 0.0 0.00 0.00 0.00 98 1021.0
20260509112428 46 140 0.0 0.0 0.00 0.00 0.00 98 1020.8
20260509112017 46 140 0.0 0.0 0.00 0.00 0.00 98 1021.3
20260509111955 46 140 0.0 0.0 0.00 0.00 0.00 98 1021.1
20260509110929 46 140 0.0 0.0 0.00 0.00 0.00 98 1021.2
20260509110430 46 140 0.0 0.0 0.00 0.00 0.00 97 1021.0
20260509105929 46 140 0.0 0.0 0.00 0.00 0.00 97 1021.1
20260509105456 46 140 0.0 0.0 0.00 0.00 0.00 97 1021.2
20260509104429 46 140 0.0 0.0 0.00 0.00 0.00 97 1021.0
20260509103929 46 140 0.0 0.0 0.00 0.00 0.00 97 1021.1
20260509103429 46 140 0.0 0.0 0.00 0.00 0.00 97 1021.3
20260509102929 47 140 0.0 0.0 0.00 0.00 0.00 97 1021.3
20260509102429 47 140 0.0 0.0 0.00 0.00 0.00 97 1021.5
20260509101929 47 140 0.0 0.0 0.00 0.00 0.00 97 1021.4
20260509101429 47 140 0.0 0.0 0.00 0.00 0.00 97 1021.3
20260509100929 47 140 0.0 0.0 0.00 0.00 0.00 96 1021.4
20260509100719 47 140 0.0 0.0 0.00 0.00 0.00 96 1021.5
20260509095929 47 140 0.0 0.0 0.00 0.00 0.00 96 1021.5
20260509095429 47 140 0.0 0.0 0.00 0.00 0.00 96 1021.5
20260509095218 47 140 0.0 0.0 0.00 0.00 0.00 96 1021.4
20260509094429 47 140 0.0 0.0 0.00 0.00 0.00 96 1021.4
20260509093928 47 140 0.0 0.0 0.00 0.00 0.00 95 1021.5
20260509093429 47 140 0.0 0.0 0.00 0.00 0.00 95 1021.4
20260509092928 47 140 0.0 0.0 0.00 0.00 0.00 95 1021.6
20260509092428 47 140 0.0 0.0 0.00 0.00 0.00 94 1021.3
20260509091929 48 139 0.0 0.0 0.00 0.00 0.00 94 1021.7
20260509091433 48 140 0.0 0.0 0.00 0.00 0.00 94 1021.5
20260509090933 48 140 0.0 0.0 0.00 0.00 0.00 94 1021.6
20260509090434 48 140 0.0 0.0 0.00 0.00 0.00 94 1021.6
20260509090216 48 140 0.0 0.0 0.00 0.00 0.00 94 1021.6
20260509085433 48 140 0.0 0.0 0.00 0.00 0.00 94 1021.2
20260509084932 48 140 0.0 0.0 0.00 0.00 0.00 94 1021.5
20260509084444 48 140 0.0 0.0 0.00 0.00 0.00 94 1021.5
20260509083932 48 140 0.0 0.0 0.00 0.00 0.00 94 1021.5
20260509083434 48 140 0.0 0.0 0.00 0.00 0.00 94 1021.7
20260509082933 48 140 0.0 0.0 0.00 0.00 0.00 94 1021.7
20260509082445 48 140 0.0 0.0 0.00 0.00 0.00 93 1021.6
20260509081933 48 140 0.0 0.0 0.00 0.00 0.00 93 1021.8
20260509081519 49 139 0.0 0.0 0.00 0.00 0.00 92 1021.5
20260509081501 49 140 0.0 0.0 0.00 0.00 0.00 93 1021.4
20260509080444 49 139 0.0 0.0 0.00 0.00 0.00 92 1021.4
20260509075934 49 139 0.0 0.0 0.00 0.00 0.00 92 1021.5
20260509075433 49 139 0.0 0.0 0.00 0.00 0.00 92 1021.6
20260509074932 49 139 0.0 0.0 0.00 0.00 0.00 91 1021.4
20260509074717 49 138 0.0 0.0 0.00 0.00 0.00 91 1021.5
20260509073932 49 138 0.0 0.0 0.00 0.00 0.00 91 1021.3
20260509073526 49 137 0.0 0.0 0.00 0.00 0.00 90 1021.3
20260509072432 50 147 0.0 0.0 0.00 0.00 0.00 89 1021.2
20260509071939 50 147 0.0 0.0 0.00 0.00 0.00 89 1021.2
20260509071434 50 147 0.0 0.0 0.00 0.00 0.00 90 1021.3
20260509070934 49 147 0.0 0.0 0.00 0.00 0.00 90 1021.3
20260509070430 49 147 0.0 0.0 0.00 0.00 0.00 90 1021.2
20260509070215 49 147 0.0 0.0 0.00 0.00 0.00 90 1021.4
20260509065430 49 147 0.0 0.0 0.00 0.00 0.00 89 1021.5
20260509064930 49 147 0.0 0.0 0.00 0.00 0.00 89 1021.1
20260509064715 50 147 0.0 0.0 0.00 0.00 0.00 89 1021.1
20260509063932 50 147 0.0 0.0 0.00 0.00 0.00 88 1021.3
20260509063430 50 147 0.0 0.0 0.00 0.00 0.00 88 1021.2
20260509063208 50 147 0.0 0.0 0.00 0.00 0.00 88 1021.2
20260509062430 50 147 0.0 0.0 0.00 0.00 0.00 88 1021.2
20260509061932 50 147 0.0 0.0 0.00 0.00 0.00 87 1021.3
20260509061755 51 147 0.0 0.0 0.00 0.00 0.00 87 1021.1
20260509060930 51 147 0.0 0.0 0.00 0.00 0.00 87 1021.0
20260509060451 51 147 0.0 0.0 0.00 0.00 0.00 87 1021.1
20260509060215 51 147 0.0 0.0 0.00 0.00 0.00 87 1020.9
20260509055431 51 147 0.0 0.0 0.00 0.00 0.00 86 1021.0
20260509054930 51 147 0.0 0.0 0.00 0.00 0.00 86 1020.9
20260509054431 51 147 0.0 0.0 0.00 0.00 0.00 86 1020.8
20260509054225 51 147 0.0 0.0 0.00 0.00 0.00 86 1020.9
20260509053431 51 147 0.0 0.0 0.00 0.00 0.00 86 1020.9
20260509052935 51 147 0.0 0.0 0.00 0.00 0.00 86 1020.6
20260509052430 51 147 0.0 0.0 0.00 0.00 0.00 86 1021.0
20260509052057 52 147 0.0 0.0 0.00 0.00 0.00 85 1020.8
20260509052038 52 147 0.0 0.0 0.00 0.00 0.00 86 1020.8
20260509050930 52 147 0.0 0.0 0.00 0.00 0.00 85 1020.8
20260509050430 52 147 0.0 0.0 0.00 0.00 0.00 85 1020.8
20260509045930 52 147 0.0 0.0 0.00 0.00 0.00 85 1020.8
20260509045534 52 147 0.0 0.0 0.00 0.00 0.00 84 1020.9
20260509045512 52 147 0.0 0.0 0.00 0.00 0.00 84 1020.6
20260509044427 52 147 0.0 0.0 0.00 0.00 0.00 84 1020.5
20260509043927 52 147 0.0 0.0 0.00 0.00 0.00 83 1020.7
20260509043524 53 147 0.0 0.0 0.00 0.00 0.00 82 1020.7
20260509043500 53 147 0.0 0.0 0.00 0.00 0.00 83 1020.8
20260509042429 53 147 0.0 0.0 0.00 0.00 0.00 82 1020.6
20260509041930 53 147 0.0 0.0 0.00 0.00 0.00 81 1020.8
20260509041428 53 147 0.0 0.0 0.00 0.00 0.00 81 1020.7
20260509040935 53 147 0.0 0.0 0.00 0.00 0.00 81 1020.4
20260509040430 53 147 0.0 0.0 0.00 0.00 0.00 80 1020.5
20260509035929 53 147 0.0 0.0 0.00 0.00 0.00 80 1020.5
20260509035429 53 146 0.0 0.0 0.00 0.00 0.00 80 1020.4
20260509035217 53 146 0.0 0.0 0.00 0.00 0.00 80 1020.4
20260509034429 54 146 0.0 0.0 0.00 0.00 0.00 81 1020.1
20260509034219 54 146 0.0 0.0 0.00 0.00 0.00 80 1020.3
20260509033428 54 146 0.0 0.0 0.00 0.00 0.00 80 1020.0
20260509032928 54 146 0.0 0.0 0.00 0.00 0.00 81 1020.1
20260509032429 54 146 0.0 0.0 0.00 0.00 0.00 80 1019.9
20260509031929 55 146 0.0 0.0 0.00 0.00 0.00 79 1020.0
20260509031430 55 146 0.0 0.0 0.00 0.00 0.00 78 1019.9
20260509030928 55 146 0.0 0.0 0.00 0.00 0.00 79 1020.0
20260509030715 55 146 0.0 0.0 0.00 0.00 0.00 77 1019.9
20260509025928 55 146 0.0 0.0 0.00 0.00 0.00 74 1019.9
20260509025706 55 146 0.0 0.0 0.00 0.00 0.00 75 1020.0
20260509024922 55 146 0.0 0.0 0.00 0.00 0.00 75 1019.9
20260509024450 56 146 0.0 0.0 0.00 0.00 0.00 74 1020.0
20260509023420 56 145 0.0 0.0 0.00 0.00 0.00 73 1019.6
20260509022926 56 146 0.0 0.0 0.00 0.00 0.00 71 1019.8
20260509022422 56 146 0.0 0.0 0.00 0.00 0.00 72 1019.7
20260509021920 57 146 0.0 0.0 0.00 0.00 0.00 71 1019.7
20260509021421 57 146 0.0 0.0 0.00 0.00 0.00 69 1019.8
20260509020920 58 146 0.0 0.0 0.00 0.00 0.00 69 1020.0
20260509020420 58 146 0.0 0.0 0.00 0.00 0.00 69 1019.8
20260509015923 58 145 0.0 0.0 0.00 0.00 0.00 66 1019.8
20260509015421 59 145 0.0 0.0 0.00 0.00 0.00 69 1019.6
20260509014919 59 146 0.0 0.0 0.00 0.00 0.00 66 1019.6
20260509014420 59 147 0.0 0.0 0.00 0.00 0.00 68 1019.7
20260509013919 60 146 0.0 0.0 0.00 0.00 0.00 62 1019.8
20260509013423 60 146 0.0 0.0 0.00 0.00 0.00 60 1019.6
20260509012923 60 149 0.0 0.0 0.00 0.00 0.00 60 1019.8
20260509012421 60 152 0.0 0.0 0.00 0.00 0.00 60 1019.8
20260509012220 60 146 0.0 0.0 0.00 0.00 0.00 62 1019.7
20260509011420 60 154 0.0 0.0 0.00 0.00 0.00 61 1019.8
20260509010920 60 149 0.0 0.0 0.00 0.00 0.00 60 1019.9
20260509010421 60 158 0.0 0.0 0.00 0.00 0.00 59 1019.9
20260509005920 60 153 0.0 0.0 0.00 0.00 0.00 62 1019.9
20260509005419 60 143 0.0 0.0 0.00 0.00 0.00 63 1019.8
20260509004922 60 157 0.0 0.0 0.00 0.00 0.00 58 1019.7
20260509004708 61 146 0.0 0.0 0.00 0.00 0.00 57 1019.7
20260509003921 60 133 0.0 0.0 0.00 0.00 0.00 58 1019.7
20260509003421 60 122 0.0 0.0 0.00 0.00 0.00 65 1019.8
20260509002920 60 171 0.0 0.0 0.00 0.00 0.00 58 1019.7
20260509002708 60 172 0.0 0.0 0.00 0.00 0.00 58 1019.6
20260509001920 60 172 0.0 0.0 0.00 0.00 0.00 58 1019.8
20260509001421 60 174 0.0 0.0 0.00 0.00 0.00 62 1019.8
20260509000920 60 144 0.0 0.0 0.00 0.00 0.00 59 1019.8
20260509000420 60 143 0.0 0.0 0.00 0.00 0.00 60 1020.0
20260508235920 60 126 0.0 0.0 0.00 0.00 0.00 65 1019.9
20260508235421 60 163 0.0 0.0 0.00 0.00 0.00 59 1019.7
20260508234921 60 161 0.0 0.0 0.00 0.00 0.00 60 1019.7
20260508234421 60 142 0.0 0.0 0.00 0.00 0.00 60 1019.7
20260508233922 60 136 0.0 0.0 0.00 0.00 0.00 62 1019.9
20260508233421 60 133 0.0 0.0 0.00 0.00 0.00 61 1019.8
20260508232920 60 120 0.0 0.0 0.00 0.00 0.00 61 1019.8
20260508232421 60 152 0.0 0.0 0.00 0.00 0.00 61 1019.7
20260508231920 60 171 0.0 0.0 0.00 0.00 0.00 59 1019.9
20260508231420 60 83 0.0 0.0 0.00 0.00 0.00 61 1019.6
20260508230920 60 133 0.0 0.0 0.00 0.00 0.00 59 1019.8
20260508230421 59 104 0.0 0.0 0.00 0.00 0.00 64 1019.8
20260508225921 59 121 0.0 0.0 0.00 0.00 0.00 61 1019.7
20260508225713 59 147 0.0 0.0 0.00 0.00 0.00 60 1019.8
20260508224920 59 54 0.0 0.0 0.00 0.00 0.00 61 1019.8
20260508224419 59 148 0.0 0.0 0.00 0.00 0.00 61 1019.9
20260508223919 59 152 0.0 0.0 0.00 0.00 0.00 61 1019.7
20260508223418 59 149 0.0 0.0 0.00 0.00 0.00 61 1020.0
20260508222919 59 256 0.0 0.0 0.00 0.00 0.00 61 1019.8
20260508222418 59 171 0.0 0.0 0.00 0.00 0.00 61 1019.9
20260508221918 59 153 0.0 0.0 0.00 0.00 0.00 62 1019.8
20260508221716 59 162 0.0 0.0 0.00 0.00 0.00 62 1020.1
20260508220919 59 151 0.0 0.0 0.00 0.00 0.00 62 1020.0
20260508220716 59 145 0.0 0.0 0.00 0.00 0.00 60 1019.9
20260508215920 58 160 0.0 0.0 0.00 0.00 0.00 62 1019.8
20260508215420 58 136 0.0 0.0 0.00 0.00 0.00 65 1020.0
20260508215218 58 102 0.0 0.0 0.00 0.00 0.00 63 1019.9
20260508214418 58 151 0.0 0.0 0.00 0.00 0.00 63 1020.0
20260508213918 58 158 0.0 0.0 0.00 0.00 0.00 63 1020.0
20260508213420 57 146 0.0 0.0 0.00 0.00 0.00 64 1020.1
20260508212919 57 134 0.0 0.0 0.00 0.00 0.00 63 1019.9
20260508212419 57 141 0.0 0.0 0.00 0.00 0.00 64 1020.0
20260508212215 57 136 0.0 0.0 0.00 0.00 0.00 64 1019.9
20260508211709 57 127 0.0 0.0 0.00 0.00 0.00 63 1020.0
20260508210924 56 136 0.0 0.0 0.00 0.00 0.00 64 1019.7
20260508210419 57 153 0.0 0.0 0.00 0.00 0.00 64 1020.0
20260508205918 57 152 0.0 0.0 0.00 0.00 0.00 63 1020.0
20260508205419 56 180 0.0 0.0 0.00 0.00 0.00 65 1019.8
20260508204918 56 141 0.0 0.0 0.00 0.00 0.00 64 1020.0
20260508204420 56 145 0.0 0.0 0.00 0.00 0.00 65 1019.9
20260508203917 56 142 0.0 0.0 0.00 0.00 0.00 64 1019.9
20260508203418 56 168 0.0 0.0 0.00 0.00 0.00 65 1019.7
20260508202920 55 171 0.0 0.0 0.00 0.00 0.00 65 1019.7
20260508202418 56 139 0.0 0.0 0.00 0.00 0.00 65 1019.7
20260508201918 55 141 0.0 0.0 0.00 0.00 0.00 65 1019.9
20260508201421 55 138 0.0 0.0 0.00 0.00 0.00 64 1019.6
20260508200919 56 137 0.0 0.0 0.00 0.00 0.00 63 1019.6
20260508200418 56 136 0.0 0.0 0.00 0.00 0.00 64 1019.4
20260508195918 56 139 0.0 0.0 0.00 0.00 0.00 63 1019.5
20260508195707 56 135 0.0 0.0 0.00 0.00 0.00 64 1019.5
20260508195159 55 164 0.0 0.0 0.00 0.00 0.00 65 1019.4
20260508194659 56 147 0.0 0.0 0.00 0.00 0.00 66 1019.6
20260508194200 56 140 0.0 0.0 0.00 0.00 0.00 66 1019.5
20260508193419 55 146 0.0 0.0 0.00 0.00 0.00 67 1019.5
20260508192919 55 156 0.0 0.0 0.00 0.00 0.00 68 1019.4
20260508192418 55 176 0.0 0.0 0.00 0.00 0.00 67 1019.4
20260508192203 55 124 0.0 0.0 0.00 0.00 0.00 68 1019.6
20260508191418 55 144 0.0 0.0 0.00 0.00 0.00 68 1019.3
20260508190918 55 166 0.0 0.0 0.00 0.00 0.00 69 1019.3
20260508190420 55 158 0.0 0.0 0.00 0.00 0.00 69 1019.4
20260508185918 55 140 0.0 0.0 0.00 0.00 0.00 69 1019.3
20260508185419 55 142 0.0 0.0 0.00 0.00 0.00 70 1019.2
20260508184918 55 172 0.0 0.0 0.00 0.00 0.00 69 1019.3
20260508184418 55 166 0.0 0.0 0.00 0.00 0.00 72 1019.4
20260508183917 55 135 0.0 0.0 0.00 0.00 0.00 71 1019.1
20260508183419 54 129 0.0 0.0 0.00 0.00 0.00 72 1019.1
20260508182918 54 132 0.0 0.0 0.00 0.00 0.00 72 1019.2
20260508182419 54 152 0.0 0.0 0.00 0.00 0.00 71 1019.2
20260508181918 54 149 0.0 0.0 0.00 0.00 0.00 73 1019.0
20260508181727 53 151 0.0 0.0 0.00 0.00 0.00 73 1019.0
20260508180918 53 147 0.0 0.0 0.00 0.00 0.00 73 1018.9
20260508180419 53 150 0.0 0.0 0.00 0.00 0.00 72 1019.1
20260508175918 53 164 0.0 0.0 0.00 0.00 0.00 73 1018.8
20260508175715 53 165 0.0 0.0 0.00 0.00 0.00 72 1019.0
20260508174917 53 157 0.0 0.0 0.00 0.00 0.00 72 1018.9
20260508174419 53 162 0.0 0.0 0.00 0.00 0.00 71 1018.6
20260508173918 53 149 0.0 0.0 0.00 0.00 0.00 71 1018.7
20260508173419 54 169 0.0 0.0 0.00 0.00 0.00 70 1018.5
20260508172915 54 132 0.0 0.0 0.00 0.00 0.00 72 1018.5
20260508172417 54 144 0.0 0.0 0.00 0.00 0.00 72 1018.2
20260508171914 54 160 0.0 0.0 0.00 0.00 0.00 72 1018.1
20260508171413 53 141 0.0 0.0 0.00 0.00 0.00 73 1018.2
20260508171203 53 168 0.0 0.0 0.00 0.00 0.00 74 1018.1
20260508170413 53 154 0.0 0.0 0.00 0.00 0.00 73 1018.2
20260508165913 53 150 0.0 0.0 0.00 0.00 0.00 74 1018.1
20260508165411 53 139 0.0 0.0 0.00 0.00 0.00 73 1018.2
20260508164912 53 140 0.0 0.0 0.00 0.00 0.00 75 1018.1
20260508164417 53 151 0.0 0.0 0.00 0.00 0.00 75 1018.2
20260508163911 53 134 0.0 0.0 0.00 0.00 0.00 75 1018.0
20260508163411 53 146 0.0 0.0 0.00 0.00 0.00 76 1018.0
20260508162910 53 173 0.0 0.0 0.00 0.00 0.00 76 1017.6
20260508162411 52 154 0.0 0.0 0.00 0.00 0.00 76 1017.8
20260508161910 53 167 0.0 0.0 0.00 0.00 0.00 77 1017.6
20260508161411 52 153 0.0 0.0 0.00 0.00 0.00 78 1017.9
20260508160916 52 155 0.0 0.0 0.00 0.00 0.00 78 1017.9